K0SDS Weather Reports


time (UTC)temp
F
wind
direction
speed
knots
gust
knots
rain 1hr
in
rain 24hr
in
rain mn
in
humidity
%
barometer
mb
20260906181040 95 122 1.7 1.7 0.00 0.00 0.00 52 1014.2
20260906180534 95 132 3.5 5.2 0.00 0.00 0.00 53 1014.3
20260906180033 95 103 2.6 4.3 0.00 0.00 0.00 53 1014.4
20260906175532 94 99 2.6 2.6 0.00 0.00 0.00 54 1014.7
20260906175033 94 119 2.6 4.3 0.00 0.00 0.00 55 1014.7
20260906174531 94 122 2.6 2.6 0.00 0.00 0.00 57 1014.9
20260906174026 93 95 1.7 1.7 0.00 0.00 0.00 59 1014.7
20260906173521 93 166 2.6 4.3 0.00 0.00 0.00 58 1014.9
20260906173017 93 103 0.9 1.7 0.00 0.00 0.00 58 1014.8
20260906172511 93 136 2.6 2.6 0.00 0.00 0.00 58 1015.0
20260906172007 93 148 1.7 1.7 0.00 0.00 0.00 57 1015.1
20260906171501 93 176 3.5 4.3 0.00 0.00 0.00 57 1015.3
20260906170956 93 103 1.7 2.6 0.00 0.00 0.00 56 1015.2
20260906170453 93 117 2.6 2.6 0.00 0.00 0.00 58 1015.3
20260906165949 92 103 1.7 1.7 0.00 0.00 0.00 57 1015.3
20260906165448 92 119 1.7 1.7 0.00 0.00 0.00 59 1015.5
20260906164944 93 141 2.6 2.6 0.00 0.00 0.00 57 1015.4
20260906164442 93 118 1.7 1.7 0.00 0.00 0.00 58 1015.5
20260906163939 93 172 3.5 4.3 0.00 0.00 0.00 57 1015.5
20260906163434 93 85 0.9 1.7 0.00 0.00 0.00 56 1015.6
20260906162933 93 99 1.7 1.7 0.00 0.00 0.00 57 1015.4
20260906162431 93 134 1.7 2.6 0.00 0.00 0.00 57 1015.6
20260906161927 92 84 1.7 1.7 0.00 0.00 0.00 57 1015.6
20260906161426 92 121 2.6 2.6 0.00 0.00 0.00 60 1015.7
20260906160925 91 82 2.6 4.3 0.00 0.00 0.00 59 1015.4
20260906160418 92 143 1.7 2.6 0.00 0.00 0.00 59 1015.4
20260906155917 91 85 0.9 0.9 0.00 0.00 0.00 61 1015.4
20260906155410 91 104 1.7 1.7 0.00 0.00 0.00 61 1015.4
20260906154907 91 133 4.3 5.2 0.00 0.00 0.00 60 1015.2
20260906154401 91 114 1.7 1.7 0.00 0.00 0.00 61 1015.3
20260906153859 91 79 2.6 4.3 0.00 0.00 0.00 60 1015.3
20260906153354 91 107 2.6 2.6 0.00 0.00 0.00 61 1015.1
20260906152849 91 139 2.6 2.6 0.00 0.00 0.00 61 1015.0
20260906152349 91 130 2.6 2.6 0.00 0.00 0.00 62 1015.2
20260906151848 91 83 2.6 2.6 0.00 0.00 0.00 62 1015.0
20260906151344 89 86 0.9 1.7 0.00 0.00 0.00 63 1014.8
20260906150840 89 123 2.6 5.2 0.00 0.00 0.00 63 1015.1
20260906150335 89 133 3.5 4.3 0.00 0.00 0.00 64 1015.1
20260906145834 90 160 4.3 5.2 0.00 0.00 0.00 63 1015.1
20260906145333 89 76 1.7 2.6 0.00 0.00 0.00 64 1015.3
20260906144828 89 114 1.7 1.7 0.00 0.00 0.00 66 1015.1
20260906144323 88 92 0.9 1.7 0.00 0.00 0.00 65 1014.9
20260906143823 88 133 3.5 4.3 0.00 0.00 0.00 65 1015.1
20260906143319 88 148 3.5 5.2 0.00 0.00 0.00 65 1015.2
20260906142815 87 107 2.6 4.3 0.00 0.00 0.00 66 1015.2
20260906142310 87 108 2.6 2.6 0.00 0.00 0.00 66 1015.2
20260906141809 86 92 0.9 1.7 0.00 0.00 0.00 68 1015.0
20260906141304 87 106 2.6 4.3 0.00 0.00 0.00 67 1015.1
20260906140802 87 128 2.6 4.3 0.00 0.00 0.00 66 1015.1
20260906140257 87 84 0.9 0.9 0.00 0.00 0.00 67 1015.1
20260906135755 87 68 3.5 4.3 0.00 0.00 0.00 65 1015.2
20260906135250 87 97 0.9 0.9 0.00 0.00 0.00 68 1015.1
20260906134746 86 80 0.9 0.9 0.00 0.00 0.00 69 1015.2
20260906134241 86 105 1.7 1.7 0.00 0.00 0.00 69 1015.1
20260906133736 86 110 0.0 0.0 0.00 0.00 0.00 69 1015.1
20260906133232 85 79 1.7 1.7 0.00 0.00 0.00 68 1015.0
20260906132727 85 88 0.0 0.0 0.00 0.00 0.00 71 1015.1
20260906132222 83 89 0.0 0.0 0.00 0.00 0.00 74 1014.9
20260906131717 82 84 0.0 0.0 0.00 0.00 0.00 77 1014.9
20260906131207 81 82 0.0 0.0 0.00 0.00 0.00 80 1014.7
20260906130702 79 82 0.0 0.0 0.00 0.00 0.00 84 1014.6
20260906130157 78 53 0.0 0.0 0.00 0.00 0.00 85 1014.6
20260906125655 77 93 0.0 0.0 0.00 0.00 0.00 86 1014.6
20260906125154 76 84 0.0 0.0 0.00 0.00 0.00 87 1014.5
20260906124650 76 82 0.0 0.0 0.00 0.00 0.00 87 1014.4
20260906124145 76 83 0.0 0.0 0.00 0.00 0.00 87 1014.2
20260906123644 76 78 0.9 1.7 0.00 0.00 0.00 86 1014.3
20260906123139 75 65 0.9 1.7 0.00 0.00 0.00 87 1014.3
20260906122638 74 63 0.9 0.9 0.00 0.00 0.00 90 1014.3
20260906122134 73 66 0.9 1.7 0.00 0.00 0.00 91 1014.3
20260906121630 72 75 0.0 0.0 0.00 0.00 0.00 91 1014.2
20260906121126 72 86 0.0 0.0 0.00 0.00 0.00 91 1014.0
20260906120621 72 81 0.0 0.0 0.00 0.00 0.00 91 1014.0
20260906120119 72 81 0.0 0.0 0.00 0.00 0.00 91 1014.0
20260906115618 72 83 0.0 0.0 0.00 0.00 0.00 91 1014.0
20260906115114 72 80 0.0 0.0 0.00 0.00 0.00 91 1014.1
20260906114608 72 78 0.0 0.0 0.00 0.00 0.00 91 1014.2
20260906114103 72 81 0.0 0.0 0.00 0.00 0.00 90 1014.0
20260906113603 72 80 0.0 0.0 0.00 0.00 0.00 90 1014.1
20260906113057 73 80 0.0 0.0 0.00 0.00 0.00 90 1014.0
20260906112552 73 80 0.0 0.0 0.00 0.00 0.00 90 1013.9
20260906112048 73 84 0.0 0.0 0.00 0.00 0.00 90 1014.0
20260906111548 73 78 0.0 0.0 0.00 0.00 0.00 90 1013.9
20260906111043 73 81 0.0 0.0 0.00 0.00 0.00 89 1013.8
20260906110543 73 79 0.0 0.0 0.00 0.00 0.00 89 1013.9
20260906110042 74 80 0.0 0.0 0.00 0.00 0.00 89 1013.9
20260906105537 74 78 0.0 0.0 0.00 0.00 0.00 89 1013.9
20260906105033 74 80 0.9 1.7 0.00 0.00 0.00 89 1013.7
20260906104532 73 79 0.0 0.0 0.00 0.00 0.00 90 1014.1
20260906104027 73 72 0.0 0.0 0.00 0.00 0.00 89 1013.8
20260906103525 73 79 0.0 0.0 0.00 0.00 0.00 89 1013.7
20260906103020 73 80 0.0 0.0 0.00 0.00 0.00 89 1013.6
20260906102520 74 81 0.0 0.0 0.00 0.00 0.00 89 1013.9
20260906102015 74 82 0.0 0.0 0.00 0.00 0.00 88 1013.7
20260906101510 74 76 0.0 0.0 0.00 0.00 0.00 88 1013.7
20260906101004 74 81 0.0 0.0 0.00 0.00 0.00 88 1013.5
20260906100500 74 77 0.0 0.0 0.00 0.00 0.00 87 1013.4
20260906095954 74 78 0.0 0.0 0.00 0.00 0.00 87 1013.7
20260906095449 75 77 0.0 0.0 0.00 0.00 0.00 87 1013.7
20260906094944 75 79 0.0 0.0 0.00 0.00 0.00 86 1013.7
20260906094438 75 82 0.0 0.0 0.00 0.00 0.00 86 1013.7
20260906093934 75 78 0.0 0.0 0.00 0.00 0.00 85 1013.8
20260906093430 76 73 0.0 0.0 0.00 0.00 0.00 85 1013.6
20260906092930 76 78 0.0 0.0 0.00 0.00 0.00 83 1013.3
20260906092430 77 82 0.0 0.0 0.00 0.00 0.00 83 1013.5
20260906091925 77 78 0.0 0.0 0.00 0.00 0.00 82 1013.3
20260906091421 78 81 0.0 0.0 0.00 0.00 0.00 80 1013.4
20260906090918 79 80 0.0 0.0 0.00 0.00 0.00 78 1013.1
20260906090418 80 80 0.0 0.0 0.00 0.00 0.00 77 1013.3
20260906085912 80 71 0.0 0.0 0.00 0.00 0.00 75 1013.2
20260906085406 81 72 0.0 0.9 0.00 0.00 0.00 75 1013.2
20260906084905 81 67 0.9 0.9 0.00 0.00 0.00 75 1012.9
20260906084401 80 70 0.9 0.9 0.00 0.00 0.00 75 1012.9
20260906083854 81 65 0.9 1.7 0.00 0.00 0.00 75 1013.1
20260906083350 80 65 0.9 0.9 0.00 0.00 0.00 75 1013.3
20260906082849 80 78 0.0 0.0 0.00 0.00 0.00 76 1013.2
20260906082344 80 73 0.0 0.9 0.00 0.00 0.00 75 1012.9
20260906081841 81 64 0.0 0.9 0.00 0.00 0.00 75 1013.2
20260906081336 81 79 0.0 0.0 0.00 0.00 0.00 75 1013.1
20260906080832 81 75 0.0 0.9 0.00 0.00 0.00 74 1013.1
20260906080328 81 78 0.0 0.0 0.00 0.00 0.00 74 1012.9
20260906075827 82 81 2.6 2.6 0.00 0.00 0.00 74 1012.7
20260906075322 82 92 0.9 0.9 0.00 0.00 0.00 74 1012.6
20260906074817 81 57 0.9 1.7 0.00 0.00 0.00 74 1012.8
20260906074317 81 82 1.7 1.7 0.00 0.00 0.00 74 1012.6
20260906073816 81 74 0.9 1.7 0.00 0.00 0.00 75 1012.8
20260906073311 82 87 0.9 0.9 0.00 0.00 0.00 74 1013.2
20260906072808 82 86 0.0 0.9 0.00 0.00 0.00 74 1013.1
20260906072305 82 74 0.0 0.0 0.00 0.00 0.00 74 1013.1
20260906071758 82 77 0.9 0.9 0.00 0.00 0.00 74 1012.7
20260906071258 82 83 0.0 0.9 0.00 0.00 0.00 74 1012.9
20260906070755 82 82 0.9 0.9 0.00 0.00 0.00 74 1013.1
20260906070250 82 84 0.9 0.9 0.00 0.00 0.00 73 1013.1
20260906065750 82 73 0.0 0.0 0.00 0.00 0.00 73 1013.1
20260906065245 82 77 0.0 0.9 0.00 0.00 0.00 73 1013.3
20260906064741 82 109 0.0 0.9 0.00 0.00 0.00 73 1013.1
20260906064237 82 74 1.7 1.7 0.00 0.00 0.00 73 1013.1
20260906063731 83 80 1.7 1.7 0.00 0.00 0.00 73 1013.3
20260906063227 83 73 0.9 1.7 0.00 0.00 0.00 73 1013.4
20260906062722 83 76 0.0 0.0 0.00 0.00 0.00 73 1013.3
20260906062221 83 76 0.0 0.0 0.00 0.00 0.00 73 1013.5
20260906061717 83 71 2.6 4.3 0.00 0.00 0.00 73 1013.3
20260906061213 83 93 0.9 1.7 0.00 0.00 0.00 73 1013.4
20260906060709 83 79 0.9 1.7 0.00 0.00 0.00 73 1013.4
20260906060206 83 127 0.9 1.7 0.00 0.00 0.00 73 1013.4
20260906055701 83 75 0.0 0.0 0.00 0.00 0.00 73 1013.5
20260906055156 83 82 0.9 0.9 0.00 0.00 0.00 73 1013.5
20260906054652 83 69 0.9 1.7 0.00 0.00 0.00 72 1013.5
20260906054146 83 80 0.0 0.0 0.00 0.00 0.00 72 1013.5
20260906053643 83 77 0.0 0.9 0.00 0.00 0.00 72 1013.3
20260906053138 83 79 0.0 0.9 0.00 0.00 0.00 72 1013.6
20260906052634 83 92 1.7 1.7 0.00 0.00 0.00 72 1013.4
20260906052130 84 70 0.0 0.9 0.00 0.00 0.00 72 1013.6
20260906051626 84 76 0.0 0.9 0.00 0.00 0.00 72 1013.6
20260906051126 83 77 0.0 0.9 0.00 0.00 0.00 72 1013.6
20260906050622 84 72 0.0 0.9 0.00 0.00 0.00 71 1013.6
20260906050116 84 63 1.7 1.7 0.00 0.00 0.00 71 1013.5
20260906045614 84 80 0.0 0.0 0.00 0.00 0.00 71 1013.4
20260906045110 83 77 0.0 0.0 0.00 0.00 0.00 72 1013.4
20260906044606 83 80 0.0 0.0 0.00 0.00 0.00 72 1013.5
20260906044101 84 79 0.9 0.9 0.00 0.00 0.00 72 1013.4
20260906043557 84 74 0.9 0.9 0.00 0.00 0.00 70 1013.7
20260906043053 84 73 0.9 0.9 0.00 0.00 0.00 71 1013.5
20260906042551 84 76 0.9 0.9 0.00 0.00 0.00 71 1013.6
20260906042046 84 71 0.0 0.0 0.00 0.00 0.00 71 1013.5
20260906041543 84 78 0.0 0.9 0.00 0.00 0.00 71 1013.4
20260906041037 84 66 0.0 0.9 0.00 0.00 0.00 71 1013.3
20260906040532 84 75 0.0 0.9 0.00 0.00 0.00 70 1013.6
20260906040028 84 70 0.9 0.9 0.00 0.00 0.00 70 1013.2
20260906035523 84 79 0.0 0.9 0.00 0.00 0.00 71 1013.2
20260906035019 84 67 0.9 0.9 0.00 0.00 0.00 71 1013.3
20260906034518 84 76 0.0 0.0 0.00 0.00 0.00 70 1013.3
20260906034014 84 73 0.0 0.0 0.00 0.00 0.00 71 1013.2
20260906033509 84 76 0.9 0.9 0.00 0.00 0.00 71 1013.1
20260906033004 84 86 0.0 0.0 0.00 0.00 0.00 70 1012.7
20260906032500 85 76 0.0 0.0 0.00 0.00 0.00 70 1012.6
20260906031954 85 76 0.0 0.0 0.00 0.00 0.00 69 1012.9
20260906031450 85 86 0.0 0.0 0.00 0.00 0.00 69 1012.6
20260906030945 85 78 0.0 0.0 0.00 0.00 0.00 69 1012.8
20260906030440 85 76 0.0 0.0 0.00 0.00 0.00 69 1012.7
20260906025934 85 65 1.7 1.7 0.00 0.00 0.00 69 1012.5
20260906025428 85 85 1.7 1.7 0.00 0.00 0.00 69 1012.6
20260906024927 85 70 0.0 0.9 0.00 0.00 0.00 69 1012.5
20260906024427 85 72 0.9 0.9 0.00 0.00 0.00 69 1012.6
20260906023922 86 78 0.0 0.0 0.00 0.00 0.00 69 1012.3
20260906023419 86 60 1.7 1.7 0.00 0.00 0.00 68 1012.3
20260906022918 86 72 0.0 0.9 0.00 0.00 0.00 68 1012.4
20260906022413 86 73 0.9 0.9 0.00 0.00 0.00 67 1012.0
20260906021909 86 44 0.9 1.7 0.00 0.00 0.00 67 1012.0
20260906021409 87 71 0.9 0.9 0.00 0.00 0.00 67 1011.9
20260906020903 87 70 1.7 1.7 0.00 0.00 0.00 66 1011.7
20260906020357 87 72 0.9 0.9 0.00 0.00 0.00 66 1011.9
20260906015852 87 76 0.0 0.9 0.00 0.00 0.00 65 1011.9
20260906015351 87 64 1.7 1.7 0.00 0.00 0.00 65 1011.7
20260906014845 88 71 0.0 0.9 0.00 0.00 0.00 65 1011.6
20260906014345 88 72 0.9 0.9 0.00 0.00 0.00 64 1011.6
20260906013841 88 72 0.9 0.9 0.00 0.00 0.00 64 1011.7
20260906013337 88 76 0.0 0.9 0.00 0.00 0.00 64 1011.5
20260906012832 88 65 0.9 0.9 0.00 0.00 0.00 64 1011.6
20260906012327 88 48 0.9 0.9 0.00 0.00 0.00 64 1011.6
20260906011827 89 48 1.7 1.7 0.00 0.00 0.00 63 1011.3
20260906011322 89 65 0.9 0.9 0.00 0.00 0.00 62 1011.5
20260906010818 89 67 1.7 1.7 0.00 0.00 0.00 61 1011.4
20260906010314 90 56 0.9 0.9 0.00 0.00 0.00 60 1011.1
20260906005809 90 66 0.9 0.9 0.00 0.00 0.00 59 1011.1
20260906005308 91 78 1.7 1.7 0.00 0.00 0.00 57 1011.1
20260906004806 91 75 0.9 1.7 0.00 0.00 0.00 55 1011.4
20260906004301 91 48 1.7 1.7 0.00 0.00 0.00 54 1011.3
20260906003756 91 67 0.9 0.9 0.00 0.00 0.00 54 1011.4
20260906003252 92 72 0.9 0.9 0.00 0.00 0.00 53 1011.3
20260906002747 92 73 0.9 0.9 0.00 0.00 0.00 54 1011.2
20260906002246 93 81 0.9 0.9 0.00 0.00 0.00 53 1011.3
20260906001742 94 80 0.0 0.9 0.00 0.00 0.00 50 1011.5
20260906001237 94 70 0.9 1.7 0.00 0.00 0.00 50 1011.2
20260906000733 94 73 0.9 1.7 0.00 0.00 0.00 49 1011.0
20260906000234 93 76 0.0 0.0 0.00 0.00 0.00 50 1011.2
20260905235733 94 82 0.0 0.0 0.00 0.00 0.00 52 1011.2
20260905235227 95 83 0.0 0.0 0.00 0.00 0.00 56 1011.4
20260905234723 96 86 0.0 0.0 0.00 0.00 0.00 57 1011.2
20260905234218 96 85 0.0 0.0 0.00 0.00 0.00 55 1011.2
20260905233713 95 84 0.0 0.0 0.00 0.00 0.00 50 1011.3
20260905233212 96 83 0.0 0.0 0.00 0.00 0.00 49 1011.2
20260905232707 96 87 0.0 0.0 0.00 0.00 0.00 51 1011.2
20260905232203 97 91 0.0 0.0 0.00 0.00 0.00 49 1011.4
20260905231659 98 103 0.9 0.9 0.00 0.00 0.00 43 1011.3
20260905231154 98 103 0.9 1.7 0.00 0.00 0.00 43 1011.0
20260905230650 99 93 0.9 0.9 0.00 0.00 0.00 42 1011.3
20260905230148 98 115 0.0 0.0 0.00 0.00 0.00 44 1011.2
20260905225648 99 108 3.5 4.3 0.00 0.00 0.00 42 1011.1
20260905225143 98 134 2.6 2.6 0.00 0.00 0.00 42 1011.1
20260905224642 99 96 1.7 1.7 0.00 0.00 0.00 42 1010.9
20260905224136 99 136 2.6 2.6 0.00 0.00 0.00 41 1011.0
20260905223633 99 126 5.2 6.1 0.00 0.00 0.00 40 1011.0
20260905223130 99 175 2.6 2.6 0.00 0.00 0.00 42 1011.1
20260905222625 99 137 4.3 5.2 0.00 0.00 0.00 42 1011.0
20260905222120 99 139 0.9 1.7 0.00 0.00 0.00 42 1011.3
20260905221616 99 125 3.5 5.2 0.00 0.00 0.00 41 1011.5
20260905221113 100 180 5.2 5.2 0.00 0.00 0.00 40 1011.3
20260905220607 102 106 2.6 4.3 0.00 0.00 0.00 38 1011.5
20260905220103 101 104 1.7 1.7 0.00 0.00 0.00 38 1011.5
20260905215603 101 171 1.7 2.6 0.00 0.00 0.00 40 1011.3
20260905215059 100 112 1.7 1.7 0.00 0.00 0.00 41 1011.3
20260905214554 100 144 4.3 5.2 0.00 0.00 0.00 40 1011.7
20260905214049 100 159 3.5 5.2 0.00 0.00 0.00 40 1011.6
20260905213544 101 85 1.7 1.7 0.00 0.00 0.00 40 1011.6
20260905213040 100 88 0.0 0.0 0.00 0.00 0.00 39 1011.7
20260905212534 100 134 4.3 5.2 0.00 0.00 0.00 40 1011.7
20260905212034 100 127 6.1 6.1 0.00 0.00 0.00 39 1011.9
20260905211529 100 189 5.2 6.1 0.00 0.00 0.00 40 1011.9
20260905211025 99 115 2.6 2.6 0.00 0.00 0.00 40 1011.9
20260905210520 100 114 4.3 5.2 0.00 0.00 0.00 40 1011.8
20260905210020 100 120 4.3 6.1 0.00 0.00 0.00 41 1011.9
20260905205520 100 121 2.6 2.6 0.00 0.00 0.00 41 1011.7
20260905205019 100 113 1.7 1.7 0.00 0.00 0.00 40 1012.1
20260905204514 100 290 2.6 4.3 0.00 0.00 0.00 40 1012.1
20260905204009 100 152 7.0 8.7 0.00 0.00 0.00 42 1012.2
20260905203504 101 155 5.2 6.1 0.00 0.00 0.00 38 1012.1
20260905202959 101 139 2.6 2.6 0.00 0.00 0.00 41 1012.5
20260905202454 101 154 1.7 2.6 0.00 0.00 0.00 41 1012.4
20260905201950 102 115 1.7 2.6 0.00 0.00 0.00 39 1012.4
20260905201445 100 191 3.5 4.3 0.00 0.00 0.00 39 1012.5
20260905200944 100 206 2.6 4.3 0.00 0.00 0.00 40 1012.7
20260905200440 101 244 5.2 7.0 0.00 0.00 0.00 39 1012.6
20260905195939 102 65 0.9 1.7 0.00 0.00 0.00 38 1012.5
20260905195434 102 66 1.7 2.6 0.00 0.00 0.00 39 1012.7
20260905194930 100 64 1.7 1.7 0.00 0.00 0.00 38 1012.7
20260905194428 100 207 4.3 5.2 0.00 0.00 0.00 39 1013.2
20260905193923 100 148 4.3 4.3 0.00 0.00 0.00 41 1013.1
20260905193418 99 241 2.6 4.3 0.00 0.00 0.00 42 1013.1
20260905192913 99 124 2.6 4.3 0.00 0.00 0.00 43 1013.2
20260905192408 98 94 3.5 5.2 0.00 0.00 0.00 44 1013.1
20260905191903 99 178 3.5 5.2 0.00 0.00 0.00 42 1013.2
20260905191402 98 149 6.1 7.8 0.00 0.00 0.00 43 1013.2
20260905190902 98 173 4.3 6.1 0.00 0.00 0.00 44 1013.3
20260905190354 99 224 3.5 5.2 0.00 0.00 0.00 41 1013.3
20260905185853 98 86 2.6 4.3 0.00 0.00 0.00 42 1013.2
20260905185349 98 96 1.7 1.7 0.00 0.00 0.00 43 1013.4
20260905184848 98 200 7.0 7.8 0.00 0.00 0.00 42 1013.3
20260905184348 98 95 1.7 2.6 0.00 0.00 0.00 43 1013.5
20260905183845 98 151 1.7 2.6 0.00 0.00 0.00 46 1013.6
20260905183336 98 127 7.0 7.8 0.00 0.00 0.00 44 1013.7
20260905182835 98 95 1.7 2.6 0.00 0.00 0.00 44 1013.7
20260905182330 98 126 3.5 4.3 0.00 0.00 0.00 44 1014.0
20260905181826 98 198 2.6 4.3 0.00 0.00 0.00 44 1013.9